{"data":{"norad_id":57128,"intl_designator":"2023-090AD","name":"STARLINK-6163","alt_names":[],"object_type":"PAYLOAD","status":"ACTIVE","operator":null,"country":"US","launch_date":"2023-06-23","launch_site_code":"AFETR","launch_vehicle":null,"mission":null,"orbit_class":"UNKNOWN","rcs_meters":null,"size_class":null,"mass_kg":null,"dimensions":null,"purposes":["comms"],"wikipedia_slug":null,"has_3d_model":false,"image_url":null,"decayed_at":null,"tle_current":{"epoch":"2026-05-24T15:42:50.639328Z","epoch_age_seconds":101977,"freshness":"FRESH","line1":"1 57128U 23090AD  26144.65475277  .00000742  00000+0  36504-4 0  9991","line2":"2 57128  43.0015 212.2486 0001858 272.3825  87.6814 15.27577109161763","mean_motion":15.27577109,"eccentricity":0.0001858,"inclination_deg":43.0015,"raan_deg":212.2486,"arg_perigee_deg":272.3825,"mean_anomaly_deg":87.6814,"bstar":3.6504e-5,"rev_number":16176,"period_min":94.266927117196,"perigee_km":481.78294276228,"apogee_km":484.3325627324,"semimajor_km":6861.1947527473,"source":"CELESTRAK","updated_at":"2026-05-25T13:38:18.244981Z"}}}